Regional Weather Roundup
Issued by NWS

Home | Current Version | Previous Version | Text Only | Print | Product List | Glossary Off
Versions: 1 2 3 4 5 6 7 8 9 10 11 12 13 14 15 16 17 18 19 20 21 22 23 24 25 26 27 28 29 30 31 32 33 34 35 36 37 38 39 40 41 42 43 44 45 46 47 48 49 50

000
ASUS45 KABQ 231010
RWRNM
NEW MEXICO REGIONAL WEATHER ROUNDUP
NATIONAL WEATHER SERVICE ALBUQUERQUE NM
400 AM MDT TUE MAY 23 2017

NOTE: "FAIR" MEANS FEW OR NO CLOUDS BELOW 12,000 FEET AGL WITH NO
       SIGNIFICANT WEATHER OR OBSTRUCTIONS TO VISION.

      THIS PRODUCT IS RELEASED AS TWO VERSIONS.  ONE VERSION NEAR
      THE TOP OF THE HOUR CONTAINING PRELIMINARY DATA FROM ALBUQUERQUE
      AND OTHER STATIONS.  A FINAL VERSION WITH ADDITIONAL DATA IS
      ISSUED ABOUT 10 MINUTES AFTER THE HOUR.

NMZ501-503-504-510>518-231100-
NORTHWEST PLATEAU/NORTHCENTRAL MOUNTAINS

CITY           SKY/WX    TMP DP  RH WIND       PRES   REMARKS
FARMINGTON     FAIR      47  28  47 W5        30.12S
LOS ALAMOS     MOCLDY    49  39  67 SW8       30.19F
SANTA FE       FAIR      48  42  80 S12       30.16R
TAOS           MOCLDY    48  28  46 N14       30.20S
ANGEL FIRE     CLOUDY    37  34  87 N10       30.24F WCI  30

$$
NMZ402-403-502-505>509-231100-
WESTCENTRAL MOUNTAINS/SOUTHWEST MOUNTAINS

CITY           SKY/WX    TMP DP  RH WIND       PRES   REMARKS
GALLUP         FAIR      40  25  55 CALM      30.20S
GRANTS         FAIR      42  21  44 NW6       30.20S
SILVER CITY    FAIR      53  19  25 CALM      30.10S

$$
NMZ407-409-411-412-231100-
SOUTHERN DESERTS

CITY           SKY/WX    TMP DP  RH WIND       PRES   REMARKS
DEMING         FAIR      64  19  17 NW9       30.03R
LAS CRUCES     FAIR      67  20  17 NW8       30.03R
HOLLOMAN AFB   CLEAR     58  38  47 N8        30.03S
ALAMOGORDO     FAIR      55  27  33 N9        30.01R
T OR C         FAIR      62  17  17 NW10      30.07R

$$
NMZ519>523-231100-
CENTRAL VALLEYS/CENTRAL HIGHLANDS

CITY           SKY/WX    TMP DP  RH WIND       PRES   REMARKS
ALBUQUERQUE    FAIR      57  44  62 E18       30.11S
DOUBLE EAGLE   FAIR      48  26  43 NW6       30.13S
MORIARTY ARPT  FAIR      49  43  78 NE3       30.20R
CLINES CORNERS CLOUDY    45  41  86 E13       30.21S
BELEN          FAIR      52  25  35 N9        30.10R
SOCORRO        FAIR      53  22  29 NW5       30.07S

$$
NMZ524>526-539-540-231100-
SOUTHCENTRAL MOUNTAINS

CITY           SKY/WX    TMP DP  RH WIND       PRES   REMARKS
RUIDOSO        FAIR      46  41  81 SE6       30.19R

$$
NMZ527>531-231100-
NORTHEAST HIGHLANDS/NORTHEAST PLAINS

CITY           SKY/WX    TMP DP  RH WIND       PRES   REMARKS
LAS VEGAS      CLOUDY    40  37  89 NE12      30.22S WCI  33
RATON          CLOUDY    41  31  67 N16       30.22R
CLAYTON        FAIR      41  39  93 N12       30.17F

$$
NMZ532>537-231100-
EASTCENTRAL PLAINS

CITY           SKY/WX    TMP DP  RH WIND       PRES   REMARKS
SANTA ROSA     CLOUDY    47  43  84 NE20G30   30.17R
TUCUMCARI      MOCLDY    49  44  83 NE10      30.15F
CANNON AFB     CLOUDY    49  49 100 N30G38    30.13S
CLOVIS AIRPORT CLOUDY    50  43  76 N29G35    30.14R

$$
NMZ028-029-538-231100-
SOUTHEAST PLAINS

CITY           SKY/WX    TMP DP  RH WIND       PRES   REMARKS
ROSWELL        MOCLDY    58  50  75 N12       30.06R
ARTESIA        FAIR      54  52  94 N8        30.04R
CARLSBAD       NOT AVBL
HOBBS          CLOUDY    55  55 100 N10       30.06R


$$




USA.gov is the U.S. government's official web portal to all federal, state and local government web resources and services.